Location: Dimsdale
(55.1333°N, 118.9833°W)
Time: 00:24:15
(UTC+00:00)

SO-50 - Pass Details

Date: 13 December 2023
Orbit: 608 x 660 km, 64.6° (Epoch: 02 March)

Event Time Altitude Azimuth Distance (km) Brightness Sun altitude
Exits shadow 14:22:15 17° 326° (NW) 1,606 ? -14.4°
Maximum altitude 14:24:51 28° 14° (NNE) 1,188 ? -14.1°
Drops below altitude 10° 14:28:48 10° 74° (ENE) 2,007 ? -13.5°
Sets 14:31:19 0° 86° (E) 2,903 ? -13.2°
